Location: Wanzleben
(52.0609°N, 11.4408°E)
Time: 02:10:22
(UTC+00:00)

COSMOS 2406 - Pass Details

Date: 17 January 2021
Orbit: 841 x 865 km, 71.0° (Epoch: 05 March)

Event Time Altitude Azimuth Distance (km) Brightness Sun altitude
Rises 17:57:50 0° 329° (NNW) 3,459 6.7 -21.1°
Reaches altitude 10° 18:00:36 10° 340° (NNW) 2,520 5.8 -21.6°
Enters shadow 18:05:12 30° 32° (NNE) 1,497 4.2 -22.3°
